Content
SEND FEEDBACK

Daily
Averages
Monthly
Summary
United Kingdom

RADLETT, ENGLAND


Home > Europe > United Kingdom > England
Elevation: 240 feet     Latitude: 51 43N     Longitude: 000 19W

WEATHER
 
SELECT A DAY
Number of Records: 293,821;   Date Range: 7/1/96 - 10/21/14
 
SHARE

PRINT THIS DATA

[ ← Previous Day ]
WEATHER ALMANAC - FEBRUARY 16, 2014
[ Next Day → ]
[ °C ]   °F
Weather ElementAverageHighLow
Temperature40.9 °F48.2 °F (3:20 pm)35.6 °F (6:20 am)
Dewpoint34.1 °F39.2 °F (11:20 pm)32 °F (5:50 am)
Humidity77.8 %100 % (11:20 pm)54 % (3:20 pm)
Barometer29.69 in29.74 in (9:20 am)29.56 in (12:50 am)
Wind Speed10.3 mph16.1 mph (12:50 am)
Weather ElementAverage
Visibility5.7 mi
Wind DirectionSW (225.3 °)

Weather ElementTotal
Precipitation---
Heating Degree Days23.1 (Base 65)
Averaged from 47 records on February 16, 2014
WEATHER CONDITIONS BREAKOUT
WIND DIRECTION BREAKOUT
WEATHER BY HOUR - FEBRUARY 16, 2014
[ °C ]   °F
Local TimeTemperatureDewpointHumidityBarometerVisibilityWind DirectionWind SpeedGust SpeedPrecipitationEventsConditions
12:50 AM39.2 °F35.6 °F87 %29.56 inWSW (250°)16.1 mphClear
1:20 AM39.2 °F33.8 °F81 %29.56 inWSW (240°)16.1 mphClear
1:50 AM39.2 °F33.8 °F81 %29.59 inWSW (250°)15.0 mphClear
2:20 AM39.2 °F33.8 °F81 %29.59 inWSW (240°)15.0 mphClear
2:50 AM37.4 °F33.8 °F87 %29.59 inWSW (250°)15.0 mphClear
3:20 AM37.4 °F33.8 °F87 %29.62 inWSW (250°)15.0 mphClear
3:50 AM37.4 °F33.8 °F87 %29.62 inWSW (240°)16.1 mphClear
4:20 AM37.4 °F33.8 °F87 %29.62 inWSW (250°)16.1 mphClear
4:50 AM37.4 °F33.8 °F87 %29.62 inWSW (240°)15.0 mphClear
5:20 AM37.4 °F33.8 °F87 %29.65 inWSW (250°)12.7 mphClear
5:50 AM37.4 °F32.0 °F81 %29.65 inWSW (250°)12.7 mphClear
6:20 AM35.6 °F32.0 °F87 %29.68 inWSW (250°)12.7 mphClear
6:50 AM35.6 °F32.0 °F87 %29.68 inWest (260°)11.5 mphClear
7:20 AM35.6 °F32.0 °F87 %29.71 inWest (260°)13.8 mphClear
7:50 AM37.4 °F33.8 °F87 %29.71 inWest (260°)13.8 mphClear
8:20 AM37.4 °F33.8 °F87 %29.71 inWSW (250°)10.4 mphClear
8:50 AM39.2 °F33.8 °F81 %29.71 inWSW (250°)10.4 mphClear
9:20 AM41.0 °F33.8 °F76 %29.74 inWSW (250°)12.7 mphClear
9:50 AM42.8 °F33.8 °F70 %29.74 inWSW (250°)11.5 mphClear
10:20 AM42.8 °F35.6 °F76 %29.74 inWSW (250°)12.7 mphClear
10:50 AM44.6 °F35.6 °F71 %29.74 in6.2 miWSW (250°)12.7 mph
11:20 AM44.6 °F35.6 °F71 %29.74 in6.2 miWSW (250°)12.7 mphPartly Cloudy
11:50 AM44.6 °F33.8 °F66 %29.74 in6.2 miWest (260°)13.8 mphPartly Cloudy
12:20 PM46.4 °F33.8 °F62 %29.74 in6.2 miWest (260°)13.8 mphPartly Cloudy
12:50 PM46.4 °F33.8 °F62 %29.74 in6.2 miWSW (240°)13.8 mphPartly Cloudy
1:20 PM46.4 °F35.6 °F66 %29.74 in6.2 miWSW (250°)11.5 mphPartly Cloudy
1:50 PM46.4 °F33.8 °F62 %29.74 in6.2 miWSW (240°)11.5 mphPartly Cloudy
2:20 PM46.4 °F33.8 °F62 %29.74 in6.2 miWSW (250°)11.5 mphPartly Cloudy
2:50 PM46.4 °F33.8 °F62 %29.71 in6.2 miSSW (200°)8.1 mphPartly Cloudy
3:20 PM48.2 °F32.0 °F54 %29.71 in6.2 miSW (230°)11.5 mphPartly Cloudy
3:50 PM46.4 °F33.8 °F62 %29.71 in6.2 miSSW (200°)9.2 mphScattered Clouds
4:20 PM46.4 °F33.8 °F62 %29.71 in6.2 miSW (220°)9.2 mphScattered Clouds
4:50 PM44.6 °F32.0 °F61 %29.71 in6.2 miSW (220°)8.1 mphPartly Cloudy
5:20 PM42.8 °F32.0 °F66 %29.71 in6.2 miSSW (210°)3.5 mphPartly Cloudy
5:50 PM41.0 °F32.0 °F70 %29.71 in6.2 miSouth (170°)2.3 mphPartly Cloudy
6:20 PM41.0 °F32.0 °F70 %29.71 in6.2 miSouth (180°)3.5 mphPartly Cloudy
6:50 PM41.0 °F32.0 °F70 %29.71 in6.2 miSouth (170°)3.5 mphPartly Cloudy
7:20 PM41.0 °F33.8 °F76 %29.71 inSouth (180°)4.6 mphClear
7:50 PM41.0 °F33.8 °F76 %29.71 inSouth (190°)4.6 mphClear
8:20 PM41.0 °F35.6 °F81 %29.71 inSouth (190°)4.6 mphClear
8:50 PM39.2 °F35.6 °F87 %29.71 inSouth (190°)5.8 mphClear
9:20 PM39.2 °F35.6 °F87 %29.71 inSouth (190°)4.6 mphClear
9:50 PM39.2 °F37.4 °F93 %29.71 inSouth (190°)4.6 mphClear
10:20 PM37.4 °F35.6 °F93 %29.71 inSouth (180°)4.6 mphClear
10:50 PM37.4 °F35.6 °F93 %29.71 in5.0 miSouth (170°)4.6 mph
11:20 PM39.2 °F39.2 °F100 %29.71 in2.2 miSouth (170°)5.8 mphOvercast
11:50 PM39.2 °F39.2 °F100 %29.71 in1.7 miSSE (150°)4.6 mphOvercast
Hourly data recorded from EGGW, located miles away from Radlett, England







STORIES FROM OUR PARTNERS